Theta_e
286 287 287 288 287 286 287 288 288 287 287 288 288 288 289 289 289 290 290 290 289 289 289 289 289 289 290 291 292 292 292 292 292 292 292 292 292 292 292 292 292 292 292 292 292 292 292 292 292 292 293 293 293 293 293 293 294 294 294 295 295 296 296 296 297 297 297 298 298 298 298 298 298 298 298 298 298 298 298 299 299 299 299 299 300 300
286 286 287 287 287 286 286 287 288 287 287 287 287 288 288 288 288 288 289 289 289 289 289 289 289 289 289 290 291 291 292 291 292 292 291 292 292 292 292 292 292 292 292 292 292 292 292 292 292 292 292 293 293 293 293 293 294 294 294 294 294 295 295 295 295 296 296 296 297 297 297 297 297 297 297 297 298 298 298 298 299 299 299 299 299 299
285 285 286 286 286 286 286 287 287 287 287 287 287 288 288 287 287 288 288 288 288 289 289 289 289 288 288 289 290 291 291 291 291 291 291 291 291 291 291 291 292 291 292 292 292 292 292 292 292 292 292 292 293 293 293 293 293 293 293 294 294 294 294 294 294 294 295 295 295 295 295 296 296 296 296 297 297 298 298 298 298 299 298 299 299 299
284 284 285 285 286 286 286 286 287 287 287 287 288 288 288 287 287 288 288 288 288 288 288 288 288 288 288 288 289 290 291 291 291 291 291 291 291 291 291 291 291 291 291 291 292 292 292 292 292 292 292 293 293 293 293 293 293 293 293 293 293 293 293 293 293 294 294 294 294 294 295 295 295 295 296 296 297 297 297 298 297 298 298 298 298 299
284 284 284 285 285 285 286 286 287 287 287 287 288 288 288 287 287 288 288 288 288 288 287 288 288 288 287 287 288 289 290 290 291 291 291 291 291 291 291 291 291 291 291 291 292 292 292 292 292 292 292 292 292 293 292 292 292 292 292 292 293 293 293 293 293 293 293 294 294 294 294 294 294 295 295 295 295 296 296 296 296 297 297 297 298 298
283 284 285 285 285 285 286 286 287 287 287 287 287 287 287 287 287 287 287 287 287 287 287 287 287 287 287 287 288 289 290 290 290 290 290 290 290 291 291 291 291 291 291 291 292 292 292 292 292 292 292 292 292 292 292 292 292 292 292 292 292 292 292 293 293 293 293 293 293 293 293 293 293 293 294 294 294 294 295 295 295 296 296 296 297 297
283 284 285 285 285 285 286 286 287 287 286 286 286 286 287 287 287 286 286 287 287 287 286 287 287 287 287 287 288 288 289 289 289 289 290 290 290 290 291 291 291 291 291 291 291 292 291 291 292 292 292 292 292 291 292 292 291 292 292 292 292 292 292 292 292 292 292 292 292 292 292 292 292 293 293 293 293 293 294 294 294 295 295 295 296 296
283 284 284 284 285 285 285 286 286 287 287 286 285 285 285 285 285 286 286 286 286 286 286 286 286 286 286 287 287 287 287 287 288 288 288 289 289 290 290 291 291 291 291 291 291 291 291 291 291 291 291 291 291 291 291 291 291 291 291 291 291 291 291 291 291 291 291 291 291 291 292 292 292 292 292 292 292 293 293 294 294 294 295 295 295 296
283 283 284 284 284 285 285 285 286 287 287 286 285 284 284 284 284 285 285 285 286 286 285 285 285 285 285 286 286 286 287 287 287 287 287 288 288 289 289 290 290 291 291 291 291 291 291 291 291 291 291 291 291 291 291 291 291 291 290 290 290 290 291 291 291 291 291 291 291 291 291 291 292 292 292 292 292 292 293 293 294 294 294 295 295 296
283 283 284 284 285 285 285 285 286 287 287 286 285 285 284 283 283 283 283 283 284 285 285 284 284 284 284 285 286 286 286 287 288 288 289 288 288 289 289 289 289 289 290 290 290 290 290 290 290 290 290 290 291 291 290 290 290 290 290 290 290 290 290 290 290 290 290 290 291 291 291 291 291 291 292 292 292 292 292 293 293 293 294 294 295 295
283 284 284 284 285 285 285 285 285 286 286 285 285 284 284 284 283 282 281 281 282 283 284 284 283 283 283 284 285 286 286 286 287 288 289 289 289 289 289 289 289 289 289 289 290 290 290 290 290 290 290 290 290 290 290 289 289 289 289 289 289 289 289 290 290 290 290 290 290 290 291 291 291 291 292 292 292 292 292 292 292 293 293 294 294 294
283 284 284 284 284 284 284 284 285 285 285 284 283 282 283 284 283 282 281 280 281 282 282 283 283 284 284 284 285 285 285 285 285 286 286 287 287 288 287 287 287 288 288 288 288 289 289 289 289 289 289 289 289 289 289 289 289 289 289 289 289 289 289 289 290 290 290 290 291 291 291 291 291 291 292 292 292 292 292 292 292 292 293 293 294 294
284 284 284 283 283 283 283 283 283 283 283 282 281 281 281 282 283 283 282 281 281 281 282 282 282 283 284 284 285 285 285 285 285 285 285 285 286 286 286 285 285 286 286 286 286 287 288 288 288 288 288 288 288 288 288 288 288 288 288 289 289 289 289 289 290 290 290 291 291 291 291 291 292 292 292 292 292 292 292 292 292 292 293 293 293 294
283 283 282 282 282 282 282 282 281 281 281 281 281 281 282 282 282 282 282 281 281 282 282 282 282 283 284 285 285 285 285 285 284 284 284 284 285 285 285 285 285 285 285 285 285 285 287 287 287 287 288 288 288 288 288 288 288 288 288 289 289 289 289 289 290 290 290 290 291 291 291 291 291 292 292 292 292 292 292 292 292 292 293 293 293 294
282 281 281 280 280 281 281 281 281 281 281 282 282 282 282 282 282 281 281 280 281 282 282 282 282 282 283 284 285 285 285 284 284 283 283 284 284 285 285 284 284 284 284 284 284 285 286 286 286 285 286 286 287 287 287 287 288 289 289 289 289 289 289 290 290 290 290 290 290 291 291 291 291 291 291 291 292 292 292 292 292 292 293 293 293 293
281 281 280 280 280 280 281 281 281 281 281 282 282 282 282 281 281 281 281 281 281 281 281 281 280 281 282 283 285 285 285 284 283 282 282 283 284 285 285 284 283 283 284 284 284 284 285 285 285 285 285 286 287 287 287 288 288 289 289 289 289 289 289 289 289 289 290 290 290 290 290 291 291 291 291 291 291 292 292 292 292 292 292 293 293 293
281 280 280 280 280 280 281 281 282 281 282 282 282 282 281 281 281 281 281 281 281 281 280 280 279 278 279 281 283 285 285 284 283 282 281 282 283 284 285 284 283 283 283 283 283 284 284 284 285 285 285 286 287 288 288 288 288 289 289 289 289 289 289 289 289 289 290 290 290 290 290 290 291 291 291 291 291 291 291 292 292 292 292 292 292 293
280 280 280 280 280 280 281 281 281 281 282 281 281 281 282 282 282 282 281 281 281 280 280 280 279 278 278 279 281 284 285 284 282 282 281 281 282 284 285 284 283 282 282 283 283 284 284 284 285 285 285 287 288 288 288 288 288 288 289 289 289 289 289 289 289 289 290 290 290 290 290 290 290 290 291 291 291 291 291 291 291 292 292 292 292 292
280 280 280 280 280 280 281 281 281 281 281 281 281 282 282 282 282 282 282 281 281 280 280 279 279 279 279 279 281 283 285 284 282 281 280 280 281 283 284 283 283 282 282 283 283 284 284 285 285 286 287 287 288 288 288 288 288 288 288 288 288 288 289 289 289 289 289 290 290 290 290 290 290 290 290 290 291 291 291 291 292 292 292 292 292 292
280 280 280 280 280 280 280 281 282 282 282 282 282 282 281 282 282 281 281 281 281 280 280 279 279 279 280 280 282 283 285 284 282 280 279 280 281 282 283 283 282 282 281 282 283 284 284 285 285 286 287 287 287 287 288 288 288 288 288 288 288 288 289 289 289 289 289 289 290 290 290 290 290 290 290 290 290 291 291 291 291 292 292 292 292 292
280 280 281 282 281 281 280 281 282 283 284 284 283 282 281 281 281 280 280 280 280 280 280 280 280 280 280 281 281 283 284 283 281 280 279 279 280 281 283 282 282 281 281 282 283 284 284 284 284 285 286 287 287 287 287 288 288 288 288 288 288 288 289 289 289 289 289 289 290 290 290 290 290 290 290 290 290 290 291 291 291 291 291 292 292 292
281 281 283 283 283 282 282 282 283 284 285 284 283 282 281 281 280 280 280 280 280 280 280 280 280 281 282 282 282 283 284 283 281 280 279 278 279 280 282 282 282 281 281 282 283 284 284 284 284 284 286 287 287 287 287 288 288 288 288 288 288 288 288 289 289 289 289 289 289 289 290 290 290 290 290 290 290 290 291 291 291 291 292 292 292 292
282 282 283 284 284 283 283 283 284 285 285 284 283 282 282 281 280 280 280 281 281 281 281 281 282 282 282 282 283 283 284 283 282 281 279 278 278 280 282 282 281 281 281 282 282 283 284 284 284 284 285 286 287 287 287 287 288 288 288 288 288 288 288 289 289 289 289 289 289 289 290 290 290 290 290 290 290 291 291 291 291 292 292 292 292 292
284 284 284 284 284 284 284 284 285 285 285 284 283 283 283 283 282 282 282 282 282 282 282 282 281 281 281 281 282 282 283 284 283 282 280 278 279 280 281 281 281 280 280 282 282 283 283 283 283 284 284 286 287 287 287 288 288 288 288 288 288 288 288 288 289 289 289 289 289 290 290 290 290 290 290 290 291 291 291 291 291 291 292 292 292 292
284 284 284 285 285 286 286 286 286 285 285 284 283 283 283 284 284 284 283 283 282 282 281 280 279 279 279 280 280 281 282 284 283 282 280 279 279 280 281 281 280 280 280 281 282 282 282 282 283 283 284 285 286 287 287 287 287 288 288 288 288 288 288 289 289 289 289 289 289 290 290 290 290 290 290 290 290 290 290 291 291 291 291 291 291 291
286 286 286 286 287 288 288 287 287 286 286 285 284 283 283 283 283 282 282 282 281 280 279 278 277 277 278 278 279 280 281 283 283 282 280 279 279 279 280 281 281 280 280 281 282 282 281 282 282 283 283 284 285 286 287 287 287 288 288 288 288 288 288 289 289 289 289 289 289 289 290 290 290 290 290 290 290 290 290 291 291 291 291 291 291 291
287 288 288 288 287 287 287 286 286 286 286 286 285 284 284 282 281 280 279 280 280 279 278 277 277 277 277 277 278 279 281 282 282 282 282 280 279 279 280 281 281 280 280 280 281 282 282 282 282 282 283 284 285 286 287 287 287 287 288 288 288 288 288 288 288 289 289 289 289 289 289 289 290 290 290 290 290 290 291 291 291 291 291 291 290 290
287 287 286 286 286 285 285 285 285 286 286 286 286 285 284 282 280 279 278 279 279 279 278 277 276 276 276 277 277 279 280 281 282 282 282 280 279 278 280 280 280 280 279 280 281 282 282 282 282 282 283 284 284 285 286 287 287 287 288 288 288 288 288 288 288 288 288 289 289 289 289 290 290 290 290 290 290 290 291 291 291 291 290 290 289 289
285 285 285 285 285 285 284 284 284 285 285 285 285 285 284 282 280 279 279 279 279 278 277 277 277 276 276 277 277 278 279 280 282 282 283 280 279 279 280 280 280 280 279 279 280 280 281 281 282 282 283 284 284 285 285 286 286 286 287 287 287 288 288 288 288 288 289 289 289 289 289 289 290 290 290 290 290 290 290 290 290 290 290 289 289 288
284 283 283 283 284 283 283 283 283 283 284 284 284 284 284 282 281 280 280 280 279 278 277 277 277 277 277 277 277 277 277 279 282 283 282 280 278 278 279 279 280 280 279 278 278 278 278 280 282 283 283 284 284 284 284 285 285 285 286 286 287 287 287 288 288 288 289 289 289 289 289 289 290 290 290 290 290 290 290 290 290 289 289 288 288 288
282 282 281 282 282 282 282 282 282 282 283 283 283 283 283 282 281 281 281 280 280 278 278 277 277 277 277 276 275 275 276 279 281 283 282 280 279 279 279 279 279 280 280 279 277 276 276 278 280 282 283 283 283 283 284 284 284 285 285 285 286 286 287 288 288 288 288 289 289 289 289 289 289 289 290 290 290 290 290 290 290 289 288 287 287 287
281 281 280 281 281 281 281 281 281 281 282 282 282 282 282 282 282 281 281 281 280 279 278 278 277 277 277 276 275 275 276 279 281 283 282 280 279 279 280 279 279 279 280 280 278 276 275 276 278 280 282 282 282 283 283 284 284 285 285 285 285 285 287 287 288 288 288 288 289 289 289 289 289 289 289 289 290 290 290 290 290 289 288 287 286 286
280 280 280 280 280 280 280 281 281 281 281 281 281 281 282 282 282 282 281 281 281 280 279 278 278 277 277 277 277 277 277 279 281 283 283 281 279 279 280 279 279 279 280 280 279 278 277 277 278 279 280 281 282 282 283 284 284 285 285 285 284 285 286 287 287 287 287 287 288 288 288 288 288 289 289 289 289 289 289 290 290 289 288 287 286 286
279 279 279 279 280 280 280 280 280 280 280 280 281 281 281 281 281 281 281 281 281 280 280 279 278 277 277 277 277 277 278 280 282 283 283 281 280 279 279 279 279 279 279 279 279 279 278 278 278 278 279 280 281 282 283 283 284 285 285 285 284 285 285 286 286 286 286 286 286 286 287 287 287 288 288 288 288 289 289 289 289 289 289 288 287 286
279 279 279 279 279 279 279 279 280 280 280 280 281 281 281 281 281 281 281 281 281 281 281 280 279 279 278 277 277 277 278 279 282 283 283 281 280 279 279 279 279 279 278 278 278 278 278 278 278 278 278 279 280 281 282 283 284 284 285 285 285 285 285 285 285 285 285 285 285 285 285 285 286 286 287 287 288 288 289 289 290 290 290 290 289 287
278 278 278 278 278 278 279 279 279 280 280 280 280 281 281 281 281 281 281 281 281 281 281 281 281 280 280 279 278 278 278 280 282 283 283 282 281 280 279 279 279 279 278 278 278 278 277 278 278 279 278 278 278 279 281 283 284 284 284 284 285 285 285 285 285 285 285 284 284 284 285 285 285 286 286 287 288 289 289 289 289 290 290 290 290 289
277 278 278 278 278 278 278 278 279 279 279 279 280 280 280 281 281 281 281 281 282 282 282 282 282 282 282 281 280 280 281 281 282 283 283 282 281 280 279 279 280 280 279 278 278 278 278 277 277 278 278 278 278 278 280 282 282 283 283 283 284 284 285 285 285 285 284 284 284 284 285 285 286 286 287 288 288 288 289 289 289 289 290 290 290 290
277 277 278 278 278 278 278 278 278 279 279 279 279 280 280 280 281 281 281 282 282 282 282 282 282 282 283 283 283 283 282 283 283 283 283 283 282 281 280 280 280 280 280 279 279 278 278 277 276 277 277 278 278 279 280 280 281 281 282 283 283 284 284 284 285 285 285 284 285 285 285 285 286 286 286 286 287 287 287 287 288 289 289 289 290 290
277 277 277 278 278 278 278 278 278 279 279 279 280 280 280 281 281 282 282 282 282 282 282 282 282 282 283 283 283 284 284 283 283 283 283 283 282 282 281 280 280 280 281 280 280 279 278 277 277 276 277 277 278 279 280 280 280 280 281 282 282 283 283 284 284 285 285 284 284 285 285 285 285 285 285 285 286 285 285 286 286 287 288 287 288 289
277 277 277 278 278 278 278 279 279 279 280 280 280 281 281 281 281 282 282 282 282 282 283 283 283 282 283 283 283 284 284 283 283 284 283 283 283 282 281 280 280 280 281 281 280 280 279 278 278 278 278 278 278 278 279 280 280 281 281 280 280 281 283 284 284 284 284 284 284 284 284 285 285 285 285 285 285 285 285 285 286 287 287 287 286 286
277 277 277 278 278 279 279 279 279 280 280 280 280 280 280 280 280 281 281 282 282 282 282 282 282 282 282 283 283 283 283 283 284 284 284 283 283 283 282 281 281 281 280 280 280 280 280 279 279 279 279 279 279 279 279 280 280 281 281 280 280 280 282 283 284 284 284 284 284 284 285 285 285 285 285 285 286 286 286 286 286 286 287 287 286 285
277 277 277 278 278 279 279 279 280 280 280 280 279 279 279 280 280 280 280 280 281 281 281 281 281 281 281 281 282 282 283 283 284 284 284 284 284 283 283 282 282 281 281 281 280 280 281 281 280 280 280 279 279 279 279 279 280 281 281 280 280 281 282 283 284 284 284 284 284 284 285 285 285 285 285 285 286 287 287 287 287 287 287 287 287 286
277 277 277 278 278 279 279 280 280 280 280 279 279 279 279 280 280 280 280 280 280 280 280 280 280 279 279 279 280 281 282 283 284 284 285 284 284 284 284 283 283 282 282 281 280 280 281 281 281 281 281 280 280 279 278 279 280 280 281 281 281 280 280 281 282 283 284 284 284 284 284 284 284 285 285 286 286 286 287 287 288 288 288 287 287 287
277 277 278 278 278 279 279 279 279 279 279 278 279 279 279 280 280 280 280 279 280 280 280 280 280 279 278 278 279 280 281 282 284 284 285 285 285 285 285 284 284 283 283 282 281 281 281 281 281 281 281 281 280 279 279 279 279 279 280 281 281 280 279 281 282 283 283 283 283 284 284 285 285 285 285 285 286 286 286 286 287 287 288 288 288 288
277 277 278 278 278 278 278 278 278 278 278 278 278 279 279 280 280 280 280 279 279 279 279 279 279 278 278 278 278 279 280 281 282 283 284 285 286 286 286 285 284 284 284 283 282 281 280 280 280 281 281 281 280 279 279 279 279 279 280 281 282 282 282 282 283 283 282 283 283 284 285 285 285 285 285 285 285 285 286 286 287 287 288 288 289 288
277 277 277 278 277 277 277 277 278 278 278 278 278 279 279 280 280 280 280 279 279 279 279 279 278 277 277 277 278 278 279 280 281 282 283 284 285 285 286 285 285 284 284 283 283 283 282 281 281 281 281 280 280 279 279 279 279 280 280 281 282 282 282 282 283 283 283 283 283 284 285 285 285 284 284 284 284 285 286 287 287 287 288 288 289 289
276 276 277 277 277 277 277 277 277 277 277 277 278 278 279 279 280 279 279 279 279 279 279 279 278 277 277 277 278 278 278 279 280 281 282 283 284 284 285 285 285 285 284 284 284 284 283 283 283 282 281 280 279 279 280 280 280 280 281 281 281 281 281 282 282 283 283 283 284 284 285 285 284 283 283 283 284 285 286 287 288 288 289 289 289 289
276 276 276 277 277 277 277 277 277 277 277 277 278 278 279 279 279 279 279 279 279 278 278 278 278 277 277 278 278 278 279 279 279 280 281 282 283 284 284 284 285 285 285 285 285 285 284 284 284 283 282 280 279 279 280 280 281 281 281 281 281 281 281 282 282 283 283 284 284 284 285 284 283 283 283 283 284 284 285 286 287 288 289 289 289 289
276 276 276 276 276 277 277 277 277 277 277 277 277 278 278 279 280 279 278 278 278 278 278 277 277 277 277 278 278 279 280 280 280 280 281 282 282 283 284 284 284 284 284 284 284 284 284 284 285 284 284 282 281 280 280 281 281 282 282 282 282 282 281 282 282 283 283 284 284 284 284 284 284 284 284 283 283 284 285 285 286 288 289 289 289 289
276 276 276 276 276 276 277 277 277 277 277 277 277 277 278 278 279 279 279 279 278 278 278 278 277 277 277 278 279 279 280 280 280 280 281 282 282 283 283 283 283 282 282 282 282 282 282 282 283 284 285 285 284 282 281 281 281 282 282 282 282 282 282 282 282 283 283 284 284 284 284 284 285 285 284 284 284 284 284 285 286 287 288 289 289 289
276 276 276 276 276 276 277 277 277 277 277 277 277 277 277 278 278 278 278 278 278 278 278 278 278 278 278 278 279 279 280 280 280 280 281 281 282 282 282 282 282 281 281 280 280 280 279 279 280 281 283 285 285 285 283 282 282 281 281 281 282 282 282 282 283 283 284 284 284 284 284 284 284 285 285 284 284 283 283 284 285 285 287 288 289 289
Wind_Speed
8 9 9 12 12 12 11 13 14 14 12 11 11 11 11 12 12 12 15 15 15 14 14 14 15 16 18 21 23 24 25 26 26 27 27 27 27 27 28 28 28 29 29 29 30 30 30 30 30 30 30 30 30 30 30 30 30 30 30 30 30 30 30 30 30 30 30 30 30 29 29 29 29 29 29 29 30 30 30 30 30 31 31 31 31 31
9 9 9 12 13 13 11 12 13 14 13 13 12 11 12 13 12 11 11 13 14 14 13 14 15 16 18 19 21 23 24 25 25 26 26 26 27 27 28 28 29 29 29 30 30 30 30 30 30 30 30 30 30 30 30 30 30 30 30 30 30 31 31 30 30 30 30 29 29 29 29 29 29 28 28 28 28 28 28 29 29 30 30 30 30 30
9 9 8 10 11 12 11 12 13 13 14 14 13 13 14 14 13 11 10 11 12 13 13 14 14 15 17 17 19 22 23 24 25 25 26 27 27 28 28 29 29 29 29 30 30 30 30 29 29 29 30 30 30 30 30 30 30 30 30 31 31 31 31 31 30 30 30 30 29 29 29 29 28 28 28 28 27 27 27 28 28 28 28 28 28 28
9 10 9 9 10 11 11 12 12 12 12 13 14 15 15 13 11 10 10 11 12 12 13 14 14 14 14 14 16 19 22 24 25 26 26 27 27 28 29 29 29 29 29 29 29 29 29 29 29 29 30 30 30 30 30 30 30 31 31 31 31 31 31 31 30 30 30 29 29 29 28 28 28 28 28 28 28 28 28 27 27 27 26 26 26 27
9 10 10 9 9 10 11 11 12 12 11 11 12 12 13 11 10 10 11 12 12 13 12 12 13 13 12 12 14 18 22 24 25 26 27 27 28 28 28 28 28 28 29 29 29 29 29 29 29 29 30 30 30 30 30 31 31 31 31 31 31 31 31 31 30 30 29 29 29 28 28 28 28 27 28 28 28 28 29 28 28 27 26 26 26 26
9 9 9 9 9 8 9 9 10 10 10 9 9 10 10 11 11 11 11 11 11 11 11 10 11 12 12 13 15 18 22 24 25 26 26 27 27 27 28 28 28 28 28 28 28 28 29 29 29 29 30 30 30 30 31 31 31 31 31 31 31 31 31 30 30 30 29 29 29 29 28 28 28 28 28 28 28 28 29 29 29 28 28 27 27 27
9 9 8 9 9 8 8 8 9 9 9 8 8 9 10 10 11 11 11 11 11 10 10 10 11 11 12 13 16 18 20 21 23 24 25 25 26 26 27 27 27 27 28 28 28 28 29 29 29 29 30 30 30 30 30 30 31 31 31 31 31 30 30 30 30 29 29 29 29 29 29 28 28 28 28 28 28 28 28 29 29 29 29 29 29 29
10 9 9 9 9 8 8 8 8 8 9 9 9 9 10 10 10 10 12 11 11 10 10 10 10 10 11 13 14 15 16 17 17 18 20 21 22 23 24 26 26 27 27 28 28 28 28 29 29 29 29 29 30 30 30 30 30 30 30 30 30 30 30 29 29 29 29 29 28 28 28 28 28 28 28 28 28 28 28 29 29 29 30 30 30 30
11 11 10 9 9 9 8 7 7 7 8 9 9 10 10 10 10 10 10 10 10 10 9 10 10 10 11 12 13 13 14 14 14 15 16 16 17 19 21 23 24 25 26 27 27 28 28 28 29 29 29 29 29 29 29 29 29 29 29 29 29 29 29 29 29 29 28 28 28 28 28 28 28 28 28 28 27 28 28 28 29 29 29 30 30 30
11 11 11 9 8 7 7 8 8 8 9 9 10 10 10 11 11 10 10 9 9 9 9 10 10 11 11 11 11 12 14 15 16 18 18 18 19 20 21 21 21 22 24 25 26 27 27 28 28 28 28 28 28 29 29 29 29 29 29 28 28 28 28 28 28 28 28 28 28 28 28 28 28 28 28 28 28 28 28 28 28 28 29 29 30 30
10 9 9 7 6 6 6 8 8 9 10 10 10 10 9 10 10 10 11 11 10 9 9 9 10 10 11 11 11 11 12 13 14 15 17 18 20 21 21 21 21 21 23 24 25 26 26 27 27 28 28 28 28 28 28 28 28 28 28 28 28 28 28 28 28 28 28 28 28 28 28 28 28 28 28 28 28 28 28 28 28 28 29 29 30 30
8 7 6 6 6 6 7 8 8 9 10 10 9 9 9 8 9 9 11 11 11 11 10 10 9 10 10 11 11 11 11 11 11 11 11 13 14 15 15 16 17 18 19 20 21 23 24 25 26 26 26 26 26 26 26 26 26 27 27 27 27 27 27 27 27 27 28 28 28 28 28 28 28 28 28 28 28 28 29 29 29 29 29 29 30 30
6 5 6 7 7 8 8 9 9 9 8 9 9 9 9 8 8 9 10 11 11 11 11 10 10 10 10 10 10 10 10 11 11 10 10 10 10 10 10 11 12 12 13 14 15 16 20 22 23 23 24 24 25 25 25 25 25 26 26 26 26 26 27 27 27 28 28 28 29 29 29 29 29 29 29 29 29 29 29 29 29 29 29 29 30 30
7 7 7 8 9 9 9 9 10 9 9 9 9 9 9 8 9 9 9 10 11 11 11 11 11 10 9 9 9 10 10 10 10 10 10 9 9 9 10 11 11 11 11 12 12 13 16 17 17 18 21 21 23 23 23 23 24 25 25 26 26 26 27 27 28 28 28 29 29 29 29 29 29 29 29 29 29 29 29 29 29 29 30 30 30 30
8 9 9 10 9 9 9 9 10 10 9 9 9 9 9 9 9 9 9 10 10 10 10 11 11 10 8 7 8 9 10 10 10 10 10 10 9 10 10 11 12 11 11 11 12 13 15 14 14 14 16 18 20 21 21 22 24 25 25 26 27 27 28 28 29 29 29 29 29 29 29 29 29 29 29 29 29 29 29 29 29 30 30 29 29 29
8 9 10 10 10 9 9 9 9 9 9 9 9 9 9 9 9 9 10 10 10 10 9 10 10 10 8 7 7 8 9 10 10 10 10 10 10 10 11 12 12 12 11 11 12 12 12 12 13 13 14 18 20 23 24 24 25 26 27 27 28 28 29 29 29 29 29 29 29 29 29 29 29 29 29 29 29 29 29 29 29 29 29 29 29 29
8 9 10 10 10 10 9 9 9 9 9 9 8 8 9 9 9 9 9 9 9 9 8 9 9 9 8 7 7 8 9 9 9 10 10 10 10 10 10 11 12 12 12 11 11 11 11 12 12 12 13 17 20 23 25 26 27 27 28 28 29 29 29 29 29 29 29 29 29 29 29 29 29 29 29 29 29 29 29 29 29 29 29 29 29 29
9 9 9 10 10 9 9 9 8 8 8 8 8 8 9 9 9 9 9 9 9 9 9 8 8 8 8 8 7 7 9 10 10 10 10 11 10 10 10 10 11 12 12 12 11 11 11 11 12 12 14 20 23 25 26 27 28 28 28 29 29 29 29 29 29 29 29 29 29 29 30 30 30 30 30 30 30 30 30 30 30 30 30 30 30 30
9 9 9 9 9 9 9 8 8 8 8 8 8 9 10 10 9 9 9 9 9 9 9 9 9 8 8 9 9 9 10 10 10 10 11 11 11 10 9 10 11 11 12 12 11 11 11 11 13 16 19 23 25 26 27 27 28 28 28 29 29 29 29 29 29 30 30 30 30 30 30 30 30 30 30 30 30 30 30 30 30 30 30 30 30 30
9 9 8 8 9 9 9 8 8 8 9 9 9 10 10 10 9 9 9 9 9 9 9 9 10 9 9 10 11 11 10 10 10 10 10 11 11 10 9 10 11 11 11 11 11 11 11 11 13 16 20 22 24 26 27 27 28 28 29 29 29 29 30 30 30 30 30 30 30 30 29 29 29 29 29 30 30 30 30 30 30 30 30 30 30 31
10 9 9 8 8 8 7 8 9 10 11 11 11 10 9 9 9 9 9 9 9 9 9 9 9 9 9 10 11 11 11 11 10 9 9 9 9 9 8 9 10 11 12 11 11 11 11 12 12 13 16 20 24 26 27 28 28 29 29 29 29 30 29 29 29 29 29 29 29 29 29 29 29 29 29 29 29 29 30 30 30 30 30 31 31 31
10 10 10 11 10 9 9 9 11 12 12 12 10 9 9 9 9 10 10 9 9 10 10 10 10 10 10 11 11 12 11 10 10 9 7 9 9 9 8 9 10 11 12 11 11 11 11 11 11 13 16 21 25 27 28 29 29 29 29 29 29 29 29 29 28 28 28 28 28 28 28 29 29 29 29 29 29 29 30 30 30 30 31 31 31 31
10 10 11 11 11 10 10 10 10 10 11 10 10 9 8 9 10 10 10 10 10 10 10 10 10 10 10 11 11 11 10 10 9 8 7 9 10 10 8 8 9 10 11 11 11 11 11 11 12 13 17 22 25 27 28 28 29 29 28 28 28 28 28 28 28 28 28 28 28 28 28 29 29 29 29 29 29 30 30 30 30 31 31 31 31 32
11 11 11 10 9 9 9 9 9 9 9 10 10 10 9 10 10 10 10 10 10 10 9 10 10 10 10 10 11 10 10 9 8 8 7 8 9 9 8 9 10 11 11 11 11 11 12 12 12 13 14 20 24 26 27 28 28 28 27 27 27 27 27 27 27 27 28 28 28 28 29 29 29 29 29 29 30 30 30 30 30 31 31 31 31 32
11 11 11 10 10 11 11 12 13 13 13 12 11 10 11 11 11 11 10 10 9 9 9 9 10 10 9 10 10 9 9 8 8 7 6 7 8 9 9 9 10 11 11 11 11 11 12 12 13 13 13 17 21 24 25 26 26 26 26 26 26 26 27 27 27 27 28 28 28 28 29 29 29 29 29 30 30 30 30 30 30 31 31 31 31 32
14 14 15 16 17 19 21 22 22 21 21 17 13 11 10 10 10 10 10 9 9 9 9 10 10 9 9 8 8 8 8 8 8 7 7 7 8 9 8 8 9 10 11 11 11 11 12 13 13 13 12 14 17 20 23 24 25 25 25 26 26 26 27 27 27 28 28 28 28 28 28 28 29 29 29 29 30 30 30 30 30 31 31 31 31 31
19 20 21 22 22 23 24 24 24 24 24 21 18 14 12 10 10 10 9 8 8 8 9 9 9 9 9 8 8 8 8 8 7 7 7 7 8 8 8 8 9 10 12 11 11 11 13 13 13 13 12 12 13 16 20 22 23 24 25 26 26 27 27 27 27 28 28 28 28 28 28 28 28 28 29 29 29 30 30 30 30 30 30 29 27 26
18 18 19 20 21 21 22 22 22 22 21 21 20 19 14 10 9 9 9 8 8 8 9 9 9 9 8 8 8 9 9 8 7 7 7 6 6 7 8 8 9 10 11 10 11 11 12 12 12 12 12 11 11 13 16 19 22 23 24 25 26 26 26 26 27 27 27 27 27 27 27 27 28 28 28 28 29 29 30 30 30 30 28 24 20 16
16 17 18 18 19 19 19 19 19 19 19 19 19 17 13 9 8 9 9 8 8 9 9 9 9 9 8 9 9 9 9 9 8 7 6 6 6 7 8 8 9 9 9 10 10 10 10 10 10 10 11 12 12 12 13 16 18 19 21 23 24 24 25 25 25 26 26 26 26 26 27 27 27 27 27 28 28 29 29 30 30 27 22 18 15 13
13 14 15 15 16 16 15 15 14 15 16 17 17 16 12 9 8 8 8 8 8 9 9 9 9 9 9 9 9 9 8 8 7 6 6 6 6 7 8 8 9 8 8 8 8 8 8 8 8 9 10 12 12 11 11 13 13 14 15 17 19 20 22 23 24 24 25 25 25 26 26 26 26 26 27 27 28 29 29 30 28 24 16 14 13 13
12 12 12 12 12 11 11 11 11 12 13 14 14 13 10 8 8 7 7 7 8 8 9 9 9 9 9 8 7 7 7 7 7 7 7 6 6 7 8 9 9 8 7 7 7 8 9 8 7 8 10 11 11 12 11 12 12 12 12 13 14 15 18 20 21 22 22 23 24 24 25 25 26 26 27 27 28 28 29 30 27 22 15 13 13 13
11 10 10 10 10 9 9 9 9 9 9 10 10 9 9 8 8 7 7 7 7 8 8 9 9 9 9 8 8 7 7 8 8 9 8 6 6 6 8 9 9 9 8 7 7 8 8 8 8 8 9 10 11 11 11 12 11 11 11 11 12 13 16 17 18 19 18 20 21 23 24 24 25 26 26 27 27 28 29 29 27 22 15 13 12 13
10 9 9 9 9 8 8 8 8 8 8 8 8 8 8 8 8 8 8 7 7 7 8 9 9 9 9 9 9 9 9 9 10 10 10 7 6 6 7 9 9 9 9 8 8 8 8 8 9 10 10 10 10 10 11 11 11 11 11 11 11 12 14 14 14 14 15 16 17 19 21 22 23 24 25 26 26 27 28 28 27 24 19 14 12 12
10 10 9 9 9 8 8 8 8 8 8 8 8 8 8 8 8 8 8 8 7 7 8 8 9 9 9 9 9 10 10 10 11 12 11 8 6 6 8 9 9 10 9 8 8 8 8 9 10 10 10 10 10 10 10 11 11 11 11 11 11 11 12 12 12 12 13 13 13 14 15 17 18 20 22 23 24 24 25 27 27 26 24 18 15 13
9 9 9 9 8 8 8 9 9 8 8 8 8 8 8 8 8 8 8 8 8 8 8 8 8 9 9 9 9 10 11 11 12 13 12 9 7 7 8 8 9 9 9 9 8 8 8 10 11 11 10 10 10 10 9 10 10 11 10 11 11 11 11 11 11 11 12 12 12 12 12 12 13 15 16 19 21 23 25 26 27 28 28 25 21 17
9 9 9 8 8 8 8 9 9 8 8 8 8 8 8 8 8 8 8 8 9 9 9 9 9 9 9 9 10 11 12 12 13 13 13 10 8 7 7 8 9 9 9 10 9 9 9 10 11 12 12 12 11 10 9 10 10 10 11 11 11 11 11 11 11 11 11 12 12 12 11 11 12 13 14 18 21 23 25 26 27 28 28 28 27 24
8 8 8 8 8 8 8 8 8 8 8 8 8 8 9 9 9 9 9 9 9 10 10 11 11 11 11 11 11 11 12 12 13 14 14 12 10 9 8 8 9 10 9 10 10 10 10 10 11 11 11 11 10 9 9 10 10 11 11 11 11 11 11 11 11 11 11 12 12 12 12 12 12 13 14 18 21 22 23 25 25 26 27 27 28 28
8 8 8 8 8 8 8 8 8 8 8 8 8 9 10 10 11 11 10 10 11 11 11 10 11 12 15 15 14 14 14 15 16 17 16 13 11 10 9 9 10 10 10 10 10 10 10 10 11 11 10 10 10 11 11 11 11 11 11 11 11 11 11 11 11 11 11 12 12 13 13 13 13 13 14 15 15 15 15 16 17 19 21 22 24 26
8 8 8 8 8 8 8 8 8 8 8 9 9 9 10 11 12 11 10 10 10 11 11 11 11 11 13 15 15 16 16 16 16 16 15 13 11 10 10 10 10 11 10 10 10 10 10 10 10 11 10 10 11 11 11 11 11 12 12 12 11 11 11 11 11 11 11 11 12 13 13 13 12 12 13 12 12 12 12 12 13 14 15 14 16 19
8 8 8 9 8 8 8 9 9 9 9 9 10 10 10 10 10 10 10 10 10 10 12 12 12 11 12 13 14 14 15 13 13 14 13 12 11 10 9 10 10 10 11 10 10 10 11 11 11 12 12 11 11 11 11 11 12 12 13 11 10 10 10 10 11 11 11 11 11 12 12 12 12 13 13 13 12 12 12 11 12 12 12 11 11 12
9 8 8 8 8 9 9 9 9 9 9 9 9 9 9 9 9 9 9 9 9 9 10 10 11 11 12 12 13 13 14 13 13 13 12 12 12 11 10 10 10 10 10 10 10 10 11 11 12 12 12 12 12 12 13 12 13 14 14 12 12 11 12 12 12 11 11 11 11 11 12 13 14 14 13 13 13 12 11 11 12 13 13 11 10 10
9 9 9 8 8 8 8 9 10 10 10 9 9 9 9 8 8 8 9 9 9 9 9 9 9 10 12 12 12 12 12 12 12 12 12 12 12 12 11 10 10 9 10 10 11 11 11 11 12 12 12 12 11 12 12 12 13 13 13 13 13 13 13 13 11 10 10 10 11 11 13 13 13 13 13 13 13 12 12 12 13 14 14 12 11 10
8 8 9 9 9 9 9 10 10 10 9 9 9 9 8 8 8 8 9 9 9 9 9 9 9 10 11 11 12 11 11 11 12 13 13 12 12 12 12 11 11 10 9 10 10 11 12 12 12 12 12 11 11 12 13 13 13 13 12 13 13 11 9 9 9 10 10 11 11 11 12 12 12 13 13 13 13 12 12 13 14 15 15 13 11 11
8 9 9 9 9 9 9 9 9 9 9 9 9 9 9 9 9 9 9 9 9 10 9 9 9 9 10 11 11 11 11 12 13 13 13 13 12 12 11 12 12 11 10 10 10 10 11 11 12 11 11 11 11 12 12 12 12 12 12 12 12 11 10 10 11 11 12 12 11 11 12 12 13 13 13 13 13 12 11 11 11 12 13 12 11 10
8 8 9 8 8 8 8 8 9 9 9 9 9 10 9 9 9 9 8 9 9 10 9 9 8 8 9 10 10 10 10 11 11 11 11 12 13 14 12 11 10 10 10 10 10 10 10 11 11 11 11 11 11 12 12 12 12 13 13 13 12 12 12 12 12 12 12 12 12 12 13 14 14 14 13 13 12 12 11 11 11 11 11 10 10 10
8 8 9 8 8 8 9 9 9 9 9 10 10 10 10 9 9 9 9 9 10 9 9 9 8 8 9 10 10 10 10 10 10 10 10 10 11 11 11 10 9 9 9 9 10 10 11 11 11 11 11 11 11 12 12 12 12 12 12 12 12 12 12 12 11 11 12 12 12 13 14 15 14 14 13 13 13 12 11 10 10 10 10 10 10 10
8 9 9 9 9 9 9 9 9 9 9 10 10 10 10 9 9 9 9 9 9 9 9 9 9 9 10 10 10 10 10 11 11 10 10 10 11 11 10 10 10 10 9 9 10 11 11 12 12 11 11 11 11 12 12 12 12 12 12 12 11 11 11 11 11 11 11 12 12 13 15 15 14 14 14 14 13 12 11 10 10 9 9 9 9 10
9 9 9 9 9 9 9 9 9 9 9 10 10 10 10 10 10 10 10 9 9 9 9 9 9 10 10 11 11 11 11 11 11 11 11 10 10 10 10 9 9 9 10 10 11 12 12 12 13 13 12 11 11 12 12 11 11 11 11 11 11 11 12 12 12 11 11 12 13 13 14 13 13 14 15 14 13 12 12 11 10 9 8 8 9 9
9 9 9 9 9 10 10 9 9 9 10 10 10 10 10 11 11 11 10 9 9 9 9 9 10 10 10 11 11 11 12 12 11 11 10 10 10 10 10 10 10 9 9 10 10 11 11 11 12 12 12 11 11 12 12 11 11 11 11 11 11 11 12 12 12 12 12 12 13 13 13 12 12 13 14 14 14 14 13 12 11 9 8 8 8 9
9 9 9 9 9 10 10 10 10 10 10 11 11 11 10 10 10 10 9 9 9 9 9 9 10 10 11 11 11 11 12 11 11 10 10 10 10 10 10 10 10 10 10 9 9 9 9 9 9 10 11 11 11 11 11 11 11 11 11 10 10 10 11 11 12 12 12 12 12 13 13 13 12 12 12 12 13 14 14 13 12 10 9 9 9 10
9 9 9 9 9 10 10 10 10 10 10 11 11 11 10 10 10 9 9 9 9 9 9 10 10 10 11 11 12 12 12 11 11 11 11 10 10 10 10 10 10 10 10 9 9 9 8 8 7 7 8 9 10 10 9 10 10 11 11 10 10 10 10 11 11 12 12 12 12 12 12 12 12 11 11 11 12 13 14 13 13 13 12 11 11 11
Wind_Direction
299 300 301 301 300 298 296 298 298 298 299 299 299 300 302 301 300 300 300 300 299 298 297 294 292 290 288 288 289 290 292 294 295 296 297 296 296 295 295 294 294 294 294 295 295 295 295 295 295 294 294 293 293 292 291 290 289 289 288 288 288 288 288 288 287 286 286 285 285 284 283 282 281 280 279 278 277 276 275 275 274 274 274 273 274 274
297 298 299 300 299 297 295 299 300 300 300 301 301 301 302 301 300 300 299 298 297 296 294 291 289 288 288 289 292 293 295 295 296 296 296 296 296 296 296 296 296 295 295 295 295 295 294 294 293 292 292 291 290 289 289 288 288 287 287 288 288 288 288 288 288 287 287 286 286 286 285 285 284 283 282 280 279 277 276 275 274 273 273 273 273 274
301 299 298 299 298 298 298 301 300 299 299 299 300 300 300 300 300 299 298 296 294 292 289 289 289 290 291 293 295 295 295 296 296 296 297 297 297 297 297 296 296 295 295 294 293 293 292 291 291 290 290 289 289 288 288 288 288 288 288 288 289 288 288 288 288 287 287 287 286 286 286 286 286 285 284 283 282 280 278 276 275 274 274 274 275 275
300 299 300 300 298 297 297 299 299 298 297 297 297 298 299 299 298 297 295 293 291 289 287 288 290 293 294 295 295 295 296 297 297 298 298 298 298 297 296 296 295 294 293 292 292 291 290 290 290 289 289 289 289 289 288 288 288 289 289 289 289 288 288 288 287 287 286 286 286 286 286 286 286 285 285 285 284 282 280 278 276 275 275 275 275 275
296 296 299 299 296 294 294 295 296 296 296 296 297 298 299 297 295 293 291 289 288 289 290 292 293 295 295 295 296 297 298 298 299 299 299 298 297 296 295 294 293 292 292 291 291 291 291 291 290 290 290 290 290 290 289 289 289 289 289 289 288 288 288 287 287 287 286 287 286 286 286 286 285 285 284 284 283 283 282 280 278 277 276 276 275 274
292 292 294 293 292 292 294 294 295 296 296 296 297 298 297 295 293 291 289 289 290 292 293 294 295 295 296 296 298 299 300 300 299 299 298 297 295 294 293 293 292 292 292 292 292 292 292 292 292 292 291 291 291 290 290 290 290 289 289 289 289 288 288 288 288 288 287 287 287 287 286 286 285 284 283 282 282 282 281 280 279 278 277 277 276 275
288 286 287 287 288 289 290 292 296 298 300 299 298 295 292 291 291 291 292 294 295 295 296 296 296 297 298 300 301 301 301 300 299 297 296 295 294 293 293 293 293 293 293 293 293 293 293 293 293 292 292 291 291 290 290 290 290 290 289 289 289 289 289 289 289 288 288 287 287 286 286 285 284 283 282 281 281 280 280 279 279 278 278 277 276 275
288 286 285 286 288 289 288 290 295 299 300 299 297 295 293 291 292 292 294 295 296 298 299 300 301 301 301 302 302 302 300 299 297 296 295 294 293 293 293 294 294 294 294 294 294 294 293 293 292 292 291 291 290 290 290 290 289 289 289 289 289 289 289 289 288 288 288 287 287 286 285 284 283 282 281 281 280 279 279 278 277 277 276 276 275 274
286 287 286 286 288 291 293 293 294 294 293 294 295 297 298 297 296 295 296 297 300 302 304 305 304 303 302 302 301 299 297 295 294 294 294 294 294 294 294 294 294 294 294 294 294 293 293 292 292 291 291 290 290 290 290 289 289 289 289 289 289 289 288 288 288 288 287 287 286 286 285 284 283 282 281 281 280 279 278 277 276 276 275 274 274 273
281 283 285 286 288 291 293 296 295 294 292 292 293 295 298 299 300 301 302 304 306 307 306 306 304 303 301 299 297 296 294 293 293 293 293 293 293 293 293 294 294 294 294 294 293 293 292 292 292 291 291 291 290 290 290 289 289 289 289 289 288 288 288 288 288 288 287 287 286 286 285 284 283 282 281 280 279 278 277 276 275 275 274 273 272 272
281 282 284 289 291 288 285 291 295 298 298 296 293 293 293 298 303 307 309 308 308 307 304 302 301 300 300 299 298 296 295 294 293 293 292 293 293 293 293 294 293 293 294 294 293 293 293 293 292 292 291 291 290 290 289 289 289 289 288 288 288 288 288 288 287 287 287 286 285 284 283 282 282 281 280 279 278 277 276 275 274 273 272 272 271 270
284 288 290 293 294 293 291 294 297 299 301 299 297 296 297 302 308 310 309 308 307 306 303 300 298 297 298 299 299 298 296 294 293 293 294 294 295 295 295 295 294 294 295 294 294 293 293 293 292 291 291 290 289 289 289 288 288 288 288 288 288 287 287 287 286 286 285 284 283 283 282 281 280 279 278 277 276 275 274 273 272 271 271 270 269 268
290 294 295 297 298 300 301 302 302 301 301 300 301 303 306 310 312 310 305 303 303 303 302 300 297 296 296 296 296 296 295 294 293 294 296 297 298 299 298 297 296 296 296 295 294 293 293 292 292 291 290 290 289 288 288 288 287 287 287 287 287 286 286 285 285 284 284 283 282 282 281 280 280 279 278 277 276 274 273 272 271 270 269 268 267 267
301 302 301 300 301 301 301 301 300 299 300 301 302 305 308 311 310 306 301 299 298 299 299 297 296 296 296 294 293 293 293 294 295 296 296 297 299 300 300 298 297 296 296 294 293 292 293 293 292 291 290 289 289 288 288 287 287 287 287 286 286 286 286 285 285 285 284 284 283 283 282 281 281 280 279 277 276 275 274 273 271 270 269 268 267 266
307 306 302 300 298 298 298 298 297 298 300 303 305 307 308 307 305 303 300 297 298 298 298 296 295 294 293 294 295 295 295 295 296 297 297 297 298 300 300 298 296 295 295 293 293 292 294 293 291 290 289 288 288 288 288 287 287 287 287 287 287 287 287 286 286 286 286 285 285 284 283 283 282 281 279 278 277 276 275 274 273 271 270 269 268 267
304 302 298 296 296 295 295 296 297 299 302 305 307 307 306 304 303 301 298 297 298 299 300 299 299 297 294 295 297 298 298 297 297 297 299 299 300 301 302 298 296 295 294 293 292 292 293 291 289 287 287 287 287 288 289 289 289 289 289 289 289 288 288 288 288 287 287 286 286 285 284 283 282 281 280 279 278 277 276 275 274 273 272 271 270 269
298 295 293 293 294 295 297 298 300 302 304 305 304 303 301 300 299 298 297 297 298 299 300 302 303 303 302 301 299 299 301 300 300 299 299 298 299 300 300 297 295 293 293 292 291 291 291 289 288 287 286 287 288 289 290 291 291 291 290 290 290 289 289 289 288 288 287 287 286 285 284 284 283 282 281 280 279 278 277 276 275 274 273 272 271 270
292 292 292 293 295 298 302 302 302 302 301 301 300 299 297 296 295 295 295 296 297 299 301 302 301 301 302 303 303 305 308 305 303 301 300 297 297 298 298 294 291 290 290 290 289 289 289 288 287 287 288 290 290 291 291 291 291 291 291 291 290 290 290 289 289 288 288 287 286 286 285 284 283 282 282 280 280 279 278 277 276 275 274 273 272 270
294 295 297 298 298 298 299 298 297 297 298 299 300 299 297 295 295 294 294 296 298 300 302 300 298 296 296 296 299 305 310 308 305 301 298 296 295 296 297 293 289 288 288 288 289 289 289 288 289 289 290 291 291 291 291 291 291 291 291 291 291 291 290 290 289 288 287 286 285 285 284 283 282 282 281 280 279 278 277 276 276 275 274 272 271 270
295 295 293 293 292 291 289 289 292 295 298 300 300 299 296 295 296 296 297 299 299 299 298 295 293 293 294 294 298 303 309 308 303 297 293 293 293 295 296 293 290 288 287 288 290 292 292 292 291 290 290 290 291 291 291 292 292 292 292 292 291 291 290 289 288 287 286 285 284 283 282 282 281 280 280 279 278 277 276 276 275 274 273 272 271 270
290 287 284 284 285 286 287 290 294 297 299 300 299 296 294 297 299 301 302 302 300 297 295 291 291 293 296 296 298 301 305 303 299 294 291 291 291 292 294 293 291 290 290 291 293 294 293 292 290 290 290 291 292 292 293 292 292 292 291 291 290 289 289 288 287 287 286 285 285 284 283 282 281 280 280 279 278 277 276 275 274 273 272 271 270 269
286 285 285 286 286 286 288 292 295 297 298 297 296 296 299 303 304 303 302 301 298 295 293 291 292 293 295 293 294 296 299 296 293 291 292 291 291 292 295 295 294 293 292 293 294 294 293 292 292 292 292 293 293 293 292 292 291 291 290 290 290 289 289 289 288 288 288 287 286 285 284 283 282 281 280 279 278 277 276 275 274 272 271 270 269 268
284 285 287 288 288 288 290 292 293 293 294 294 295 297 301 302 301 300 300 297 295 293 292 291 290 290 289 288 289 291 292 290 289 289 290 289 291 294 300 299 296 292 291 293 295 296 296 295 294 294 293 292 292 291 291 291 290 290 290 290 290 290 289 289 289 289 288 287 287 286 285 284 283 282 281 280 279 278 277 276 275 274 272 271 270 269
285 286 288 288 289 288 288 288 289 291 294 296 297 298 298 296 295 293 293 291 290 289 289 289 288 288 287 288 289 290 290 291 291 291 289 288 291 295 301 300 296 293 291 295 298 300 299 296 295 293 292 291 291 291 290 290 290 290 290 290 290 290 289 289 289 288 288 287 287 286 286 285 285 284 283 282 281 280 279 278 277 276 275 273 272 271
287 288 288 288 288 287 288 290 293 297 299 300 300 299 297 295 293 291 290 288 287 287 288 289 290 291 292 293 293 291 292 295 295 294 291 288 290 293 298 299 297 295 295 297 299 300 298 296 294 293 291 291 290 291 291 290 291 291 291 291 290 290 290 289 289 288 287 287 287 286 286 286 285 284 284 283 282 281 280 279 278 277 275 275 274 272
288 288 288 289 290 291 293 295 297 299 299 299 299 299 299 298 296 294 291 289 289 290 292 292 292 292 294 294 293 293 295 297 296 293 290 289 291 293 296 298 297 296 296 298 299 299 297 295 294 293 292 291 291 291 291 291 292 292 292 292 291 291 290 290 289 289 288 287 286 286 285 284 284 283 282 281 280 279 278 277 277 276 275 274 273 272
289 289 289 291 293 295 297 298 298 299 299 300 300 301 301 300 298 295 291 292 294 295 294 293 292 293 294 293 293 294 297 297 295 292 290 290 290 292 295 298 299 298 298 298 298 297 295 294 294 293 292 291 291 292 292 293 294 294 294 293 292 292 291 290 289 288 287 286 286 285 284 284 283 282 282 281 280 279 278 277 277 276 275 274 273 271
291 291 293 295 297 299 300 300 300 301 301 302 302 302 301 299 296 293 291 295 297 296 292 291 292 293 295 295 295 296 297 294 293 292 294 292 290 291 296 300 301 300 299 297 296 294 292 291 291 291 292 292 293 294 295 296 296 296 295 294 292 291 290 289 288 287 287 286 286 285 284 284 284 283 283 282 282 281 280 279 279 278 276 275 272 269
295 297 299 301 303 303 303 303 302 302 302 302 301 301 299 295 291 289 291 295 295 293 289 289 290 292 293 295 296 295 292 290 292 298 305 298 291 290 297 300 301 300 301 299 296 293 289 288 289 292 293 296 297 297 297 298 297 296 295 293 292 290 289 288 287 287 286 286 286 286 285 285 285 284 284 284 283 283 282 281 281 279 277 274 271 268
305 307 307 307 307 306 305 304 302 301 301 300 299 298 296 291 286 286 289 291 290 289 289 290 292 293 295 296 296 293 289 289 297 309 315 303 294 292 299 299 300 300 302 302 301 298 293 290 291 294 297 299 299 298 298 298 297 296 294 293 292 290 289 288 287 287 287 287 287 287 287 287 286 286 285 284 284 283 282 282 281 280 278 274 270 267
313 312 310 309 308 306 304 302 301 299 299 298 298 297 294 290 286 285 286 286 286 287 289 291 292 293 294 295 295 292 289 293 303 312 315 301 294 294 299 298 298 299 301 302 303 302 302 300 298 298 299 299 298 298 297 296 296 295 294 293 292 290 289 289 289 289 289 289 289 289 289 289 288 286 285 284 283 282 282 281 281 279 276 273 270 267
313 311 309 307 306 304 302 300 299 298 298 298 298 296 294 291 288 286 284 283 284 284 286 287 288 289 289 288 286 285 287 292 301 307 309 299 292 292 296 296 296 297 298 295 294 294 298 302 304 304 302 299 297 296 296 296 295 294 294 292 291 290 290 291 291 291 291 291 291 290 290 289 288 287 285 284 282 281 280 280 279 278 275 271 269 267
309 307 305 303 302 301 299 299 299 299 299 298 298 296 295 292 290 287 285 283 282 282 283 285 286 286 286 283 281 280 282 287 295 301 303 298 292 291 294 295 295 296 297 292 287 285 286 292 298 301 301 299 297 297 297 296 295 294 293 292 291 291 292 294 293 293 292 292 292 291 290 289 287 286 284 283 281 280 279 278 277 275 273 270 267 266
305 302 301 301 300 300 299 299 299 299 299 298 298 297 296 294 292 290 287 285 283 280 279 281 282 284 285 284 282 281 282 285 292 297 301 296 292 290 293 293 294 295 296 293 289 286 282 287 292 296 299 298 297 296 296 295 295 294 293 292 292 293 295 296 295 294 293 293 291 290 289 287 285 284 283 282 280 279 278 277 276 274 272 269 267 265
302 301 301 301 301 301 301 301 301 300 299 299 299 298 298 297 295 293 290 287 284 281 277 276 276 278 280 282 282 283 283 287 292 296 297 293 289 288 291 290 291 293 294 292 291 290 287 288 290 293 296 297 296 295 294 294 295 295 294 293 293 293 294 295 295 294 293 292 290 288 286 285 283 282 281 280 280 279 279 278 276 275 273 270 268 266
301 301 302 303 303 303 303 303 303 303 302 301 300 300 299 298 296 293 291 289 286 283 280 277 274 272 271 273 275 278 281 286 290 292 292 288 286 285 286 287 289 290 290 290 290 289 289 290 291 292 293 294 294 295 294 295 296 296 295 294 293 292 292 292 292 292 292 290 288 286 285 284 283 282 280 280 280 280 280 279 278 276 274 271 269 267
301 301 302 304 305 305 304 304 304 304 304 303 302 301 300 297 295 293 291 288 286 285 283 280 276 272 268 267 268 270 275 281 284 285 284 282 280 279 279 282 284 285 285 286 287 289 289 289 290 291 290 289 291 294 298 300 299 297 295 294 294 293 293 292 291 289 287 286 285 285 285 285 285 284 283 282 282 282 281 280 278 276 274 272 269 267
302 302 304 305 305 305 304 304 304 303 303 302 301 300 299 296 294 292 290 288 286 284 282 281 278 276 273 272 271 270 272 275 277 278 278 277 275 274 275 278 280 280 279 280 282 285 286 288 290 291 290 288 289 291 295 298 298 297 295 295 294 292 291 290 289 287 285 285 285 286 286 285 285 284 284 284 284 283 281 279 276 274 272 271 268 266
303 304 305 306 306 305 304 303 302 302 301 300 298 297 296 293 291 290 288 286 285 283 283 283 283 282 280 278 277 276 275 275 275 275 275 273 271 270 272 275 277 278 277 276 277 278 280 282 285 287 289 291 291 291 292 293 294 296 297 297 294 290 287 288 288 288 287 286 286 286 286 285 285 285 285 284 284 283 282 281 279 276 274 272 269 267
304 305 304 305 305 304 303 301 301 300 299 298 296 294 293 291 290 289 287 287 287 288 288 288 288 287 286 285 284 283 281 279 277 275 274 269 266 264 266 269 273 275 276 275 274 274 275 277 279 281 283 286 289 291 292 292 293 295 299 298 295 292 291 292 291 290 287 285 284 284 285 286 287 287 285 284 283 282 281 281 280 279 277 274 272 270
305 304 304 304 304 302 300 299 299 299 298 296 295 293 292 292 292 293 293 293 293 293 293 293 293 292 291 290 289 288 286 282 279 276 273 268 264 261 261 263 267 270 273 274 273 273 273 275 277 279 281 282 285 287 288 289 291 294 295 293 292 292 294 293 290 288 286 285 284 285 287 288 288 287 285 284 282 280 277 277 277 278 276 272 269 267
304 304 304 303 303 302 301 300 299 298 297 295 293 292 291 292 293 295 297 297 298 298 298 298 298 298 298 296 294 292 289 286 282 279 275 269 265 261 259 260 261 265 269 272 274 274 273 274 277 280 282 285 286 287 287 288 289 290 290 289 290 292 293 290 288 287 289 290 290 290 289 288 288 287 287 286 284 281 277 274 273 273 273 269 265 261
304 303 302 302 301 300 301 300 300 299 299 297 294 293 292 293 293 294 296 297 298 299 300 299 299 299 298 297 297 297 294 291 289 286 284 278 273 268 264 262 261 263 266 271 274 276 276 276 278 280 283 285 285 285 286 289 290 290 287 287 290 292 293 293 294 295 295 293 292 290 288 288 288 289 289 288 286 284 280 276 272 270 267 266 263 259
302 301 300 299 299 299 301 301 301 301 300 298 296 296 296 296 297 297 296 296 297 298 300 299 298 296 293 293 295 297 298 297 296 294 291 287 282 277 272 269 267 266 265 268 273 278 282 281 280 281 283 284 285 285 286 288 289 288 286 285 284 282 281 288 295 298 297 295 292 290 289 290 291 292 291 289 287 284 281 277 273 270 266 263 260 258
299 298 298 299 300 302 303 302 301 300 299 297 297 298 299 300 300 300 299 297 297 298 299 299 298 295 292 292 294 296 298 299 299 298 295 292 289 286 282 279 275 272 268 266 269 273 279 281 283 284 284 283 282 282 283 284 285 285 283 283 282 280 278 284 289 293 294 294 294 293 293 294 295 295 293 291 289 286 282 280 278 276 272 267 263 260
299 300 300 301 302 302 301 301 300 299 299 298 299 299 301 302 302 301 299 298 297 297 297 297 295 292 291 293 295 296 296 297 298 298 299 298 297 295 292 287 282 277 271 268 268 269 271 274 279 282 285 283 280 278 278 280 282 284 284 285 286 286 286 287 288 290 291 293 294 295 297 298 297 295 293 292 291 290 286 282 280 279 277 273 269 265
302 302 302 302 302 301 300 300 300 300 299 299 300 301 302 303 303 302 300 299 298 296 296 295 292 290 290 292 293 295 295 296 297 298 299 300 300 299 297 293 288 283 277 274 272 271 270 270 273 276 279 281 281 280 279 279 280 282 284 288 289 290 290 290 291 292 293 294 295 297 301 302 300 297 294 295 295 294 292 289 285 281 279 277 275 273
303 303 302 302 302 301 299 300 300 301 300 300 301 301 302 304 304 303 301 300 298 296 295 294 292 291 291 291 292 293 293 294 296 297 299 300 300 300 300 298 296 291 285 281 277 275 274 272 271 270 271 273 276 278 280 279 279 280 283 287 289 290 290 291 294 296 297 296 295 297 300 301 300 299 298 298 298 298 298 297 294 289 284 280 278 278
302 301 301 301 300 300 299 300 301 301 301 301 302 302 303 303 303 303 300 299 298 295 294 292 292 292 292 292 293 293 294 294 295 296 298 299 301 301 302 302 301 298 295 290 286 283 280 277 273 270 266 265 267 271 275 277 279 280 283 285 287 289 291 293 296 299 300 299 298 298 297 296 295 295 296 298 299 301 303 304 302 298 292 285 283 282
301 300 299 299 299 299 299 300 301 301 301 301 301 302 303 303 303 302 299 298 296 294 292 291 291 291 292 293 293 295 295 296 296 297 298 299 301 302 303 303 304 303 302 299 297 296 293 288 281 274 266 262 261 264 271 277 280 282 283 285 287 290 293 295 298 300 302 302 301 300 298 295 294 293 294 297 300 303 306 307 307 305 302 298 294 292
301 299 298 298 298 298 299 300 300 300 300 300 300 300 301 301 301 301 299 298 296 294 292 291 290 291 291 293 294 295 296 297 297 297 298 300 301 302 302 303 304 306 306 307 308 308 306 304 301 293 281 271 266 265 272 281 286 289 290 290 291 293 294 295 298 301 303 302 302 300 298 297 297 298 300 302 304 306 309 310 311 311 310 309 307 304